Location: Bodest
(46.3000°N, 22.5667°E)
Time: 00:02:35
(UTC+00:00)

Meteor 1-11 - Pass Details

Date: 16 October 2021
Orbit: 840 x 887 km, 81.2° (Epoch: 26 November)

Event Time Altitude Azimuth Distance (km) Brightness Sun altitude
Rises 17:55:04 0° 347° (NNW) 3,407 7.7 -23.8°
Reaches altitude 10° 17:57:30 10° 345° (NNW) 2,469 6.9 -24.2°
Maximum altitude 18:03:04 73° 263° (W) 885 4.3 -25.1°
Enters shadow 18:06:49 21° 182° (S) 1,792 5.7 -25.7°
